TimeEST,TemperatureF,Dew PointF,Humidity,Sea Level PressureIn,VisibilityMPH,Wind Direction,Wind SpeedMPH,Gust SpeedMPH,PrecipitationIn,Events,Conditions,WindDirDegrees,DateUTC
12:15 AM,3.0,-5.1,69,30.05,1.8,WNW,13.8,20.7,N/A,Snow,Light Snow,290,2013-01-22 05:15:00
12:34 AM,3.0,-4.5,71,30.05,2.0,WNW,17.3,20.7,N/A,Snow,Light Snow,290,2013-01-22 05:34:00
12:55 AM,3.2,-2.9,76,30.04,1.2,WNW,18.4,-,N/A,Snow,Light Snow,300,2013-01-22 05:55:00
1:15 AM,3.2,-3.1,75,30.04,1.2,WNW,16.1,23.0,N/A,Snow,Light Snow,290,2013-01-22 06:15:00
1:34 AM,3.0,-3.5,74,30.04,1.0,WNW,17.3,24.2,N/A,Snow,Light Snow,300,2013-01-22 06:34:00
1:55 AM,3.2,-2.6,77,30.04,1.0,WNW,17.3,24.2,N/A,Snow,Light Snow,290,2013-01-22 06:55:00
2:14 AM,3.7,-2.9,74,30.04,1.2,WNW,17.3,24.2,N/A,Snow,Light Snow,290,2013-01-22 07:14:00
2:35 AM,3.7,-4.2,70,30.05,1.2,WNW,18.4,23.0,N/A,Snow,Light Snow,300,2013-01-22 07:35:00
2:55 AM,4.1,-2.2,75,30.05,1.2,WNW,18.4,25.3,N/A,Snow,Light Snow,300,2013-01-22 07:55:00
3:15 AM,4.1,-2.4,75,30.06,0.8,NW,18.4,26.5,N/A,Snow,Light Snow,310,2013-01-22 08:15:00
3:35 AM,4.1,-0.6,81,30.07,0.8,WNW,17.3,26.5,N/A,Snow,Snow,300,2013-01-22 08:35:00
3:55 AM,4.1,-1.1,79,30.07,1.0,NW,19.6,24.2,N/A,Snow,Snow,310,2013-01-22 08:55:00
4:15 AM,4.1,-2.2,75,30.08,1.0,WNW,15.0,23.0,N/A,Snow,Light Snow,300,2013-01-22 09:15:00
4:35 AM,4.3,-2.0,75,30.08,1.0,NW,17.3,25.3,N/A,Snow,Light Snow,310,2013-01-22 09:35:00
4:55 AM,3.9,-2.7,74,30.08,1.0,WNW,16.1,25.3,N/A,Snow,Light Snow,300,2013-01-22 09:55:00
5:14 AM,4.1,-3.6,70,30.09,2.0,WNW,17.3,24.2,N/A,Snow,Light Snow,290,2013-01-22 10:14:00
5:34 AM,3.7,-2.9,74,30.09,0.8,WNW,17.3,-,N/A,Snow,Light Snow,290,2013-01-22 10:34:00
5:55 AM,3.9,-3.5,71,30.09,1.5,WNW,11.5,23.0,N/A,Snow,Light Snow,300,2013-01-22 10:55:00
6:14 AM,3.9,-3.3,72,30.10,1.5,WNW,13.8,24.2,N/A,Snow,Light Snow,300,2013-01-22 11:14:00
6:35 AM,3.9,-3.1,73,30.10,1.2,WNW,18.4,27.6,N/A,Snow,Light Snow,290,2013-01-22 11:35:00
6:55 AM,3.9,-2.7,74,30.11,1.2,WNW,15.0,-,N/A,Snow,Light Snow,300,2013-01-22 11:55:00
7:15 AM,3.9,-3.6,71,30.12,1.2,WNW,15.0,26.5,N/A,Snow,Light Snow,290,2013-01-22 12:15:00
7:33 AM,3.7,-2.6,75,30.12,1.0,WNW,19.6,25.3,N/A,Snow,Light Snow,290,2013-01-22 12:33:00
7:54 AM,3.6,-5.1,67,30.12,1.5,WNW,12.7,24.2,N/A,Snow,Light Snow,300,2013-01-22 12:54:00
8:15 AM,3.7,-4.0,70,30.12,0.8,WNW,17.3,26.5,N/A,Snow,Light Snow,300,2013-01-22 13:15:00
8:35 AM,4.1,-3.3,71,30.13,0.8,WNW,16.1,20.7,N/A,Snow,Light Snow,300,2013-01-22 13:35:00
8:55 AM,4.1,-2.7,73,30.14,0.8,WNW,16.1,21.9,N/A,Snow,Light Snow,290,2013-01-22 13:55:00
9:15 AM,4.1,-2.2,75,30.14,0.5,NW,17.3,24.2,N/A,Snow,Light Snow,310,2013-01-22 14:15:00
9:34 AM,4.1,-2.6,74,30.15,0.8,WNW,15.0,23.0,N/A,Snow,Light Snow,300,2013-01-22 14:34:00
9:55 AM,4.5,-2.2,74,30.15,1.0,NW,13.8,23.0,N/A,Snow,Light Snow,310,2013-01-22 14:55:00
10:15 AM,4.8,-3.8,68,30.16,1.0,WNW,12.7,20.7,N/A,Snow,Light Snow,300,2013-01-22 15:15:00
10:34 AM,4.5,-3.8,69,30.17,1.0,WNW,13.8,20.7,N/A,Snow,Light Snow,290,2013-01-22 15:34:00
10:55 AM,4.8,-4.0,67,30.17,1.5,WNW,9.2,17.3,N/A,Snow,Light Snow,300,2013-01-22 15:55:00
11:14 AM,4.6,-4.4,66,30.17,1.8,WNW,10.4,-,N/A,Snow,Light Snow,300,2013-01-22 16:14:00
11:35 AM,5.0,-2.7,70,30.17,1.5,WNW,9.2,-,N/A,Snow,Light Snow,300,2013-01-22 16:35:00
11:55 AM,5.4,-4.5,64,30.17,2.5,WNW,16.1,19.6,N/A,Snow,Light Snow,290,2013-01-22 16:55:00
12:14 PM,5.4,-2.2,71,30.17,2.0,WNW,9.2,-,N/A,Snow,Light Snow,290,2013-01-22 17:14:00
12:35 PM,5.4,-3.6,66,30.17,2.5,WNW,9.2,17.3,N/A,Snow,Light Snow,290,2013-01-22 17:35:00
12:55 PM,5.7,-3.8,65,30.18,1.5,WNW,11.5,-,N/A,Snow,Light Snow,300,2013-01-22 17:55:00
1:15 PM,5.7,-3.3,66,30.17,2.5,WNW,11.5,19.6,N/A,Snow,Light Snow,300,2013-01-22 18:15:00
1:35 PM,5.9,-3.3,66,30.17,2.0,WNW,13.8,20.7,N/A,Snow,Light Snow,290,2013-01-22 18:35:00
1:55 PM,5.7,-2.6,69,30.17,1.2,WNW,12.7,-,N/A,Snow,Light Snow,300,2013-01-22 18:55:00
2:15 PM,6.3,-4.4,62,30.17,4.0,WNW,12.7,-,N/A,,Haze,300,2013-01-22 19:15:00
2:35 PM,6.3,-1.8,69,30.18,2.0,WNW,10.4,16.1,N/A,Snow,Light Snow,300,2013-01-22 19:35:00
2:54 PM,6.3,-2.7,67,30.18,4.0,West,17.3,21.9,N/A,,Haze,280,2013-01-22 19:54:00
3:15 PM,6.8,-4.9,59,30.18,10.0,WNW,10.4,16.1,N/A,Snow,Light Snow,290,2013-01-22 20:15:00
3:35 PM,6.4,-1.1,71,30.18,1.5,West,9.2,17.3,N/A,Snow,Light Snow,280,2013-01-22 20:35:00
3:54 PM,6.8,-1.3,69,30.18,2.0,West,13.8,-,N/A,Snow,Light Snow,280,2013-01-22 20:54:00
4:15 PM,6.8,-1.5,69,30.18,1.8,West,18.4,-,N/A,Snow,Light Snow,280,2013-01-22 21:15:00
4:35 PM,6.8,-3.1,64,30.18,7.0,WNW,11.5,-,N/A,,Overcast,290,2013-01-22 21:35:00
4:54 PM,7.2,-1.8,67,30.19,2.5,WNW,11.5,-,N/A,Snow,Light Snow,300,2013-01-22 21:54:00
5:15 PM,6.6,-1.1,71,30.19,2.5,West,10.4,-,N/A,Snow,Light Snow,280,2013-01-22 22:15:00
5:35 PM,6.8,-1.1,70,30.19,2.0,West,12.7,17.3,N/A,Snow,Light Snow,280,2013-01-22 22:35:00
5:54 PM,6.8,-2.2,67,30.19,3.0,West,11.5,-,N/A,Snow,Light Snow,280,2013-01-22 22:54:00
6:15 PM,7.3,-4.9,57,30.19,7.0,West,11.5,19.6,N/A,,Overcast,280,2013-01-22 23:15:00
6:35 PM,7.3,-1.7,67,30.20,5.0,WNW,12.7,20.7,N/A,Snow,Light Snow,290,2013-01-22 23:35:00
6:54 PM,7.7,-5.4,55,30.20,7.0,West,16.1,20.7,N/A,,Overcast,280,2013-01-22 23:54:00
7:15 PM,7.9,-2.9,61,30.20,7.0,WNW,15.0,18.4,N/A,,Overcast,290,2013-01-23 00:15:00
7:34 PM,7.7,-0.6,69,30.20,3.0,West,15.0,20.7,N/A,Snow,Light Snow,280,2013-01-23 00:34:00
7:55 PM,8.2,-3.5,59,30.20,7.0,WNW,13.8,17.3,N/A,,Overcast,300,2013-01-23 00:55:00
8:14 PM,8.2,-2.9,60,30.19,7.0,WNW,12.7,20.7,N/A,Snow,Light Snow,300,2013-01-23 01:14:00
8:35 PM,8.2,-2.4,62,30.19,5.0,WNW,11.5,16.1,N/A,Snow,Light Snow,290,2013-01-23 01:35:00
8:54 PM,8.6,-1.3,64,30.19,7.0,WNW,12.7,19.6,N/A,,Overcast,290,2013-01-23 01:54:00
9:14 PM,8.6,-1.5,64,30.19,10.0,NW,12.7,-,N/A,,Overcast,310,2013-01-23 02:14:00
9:34 PM,8.6,-2.2,62,30.19,7.0,NW,13.8,-,N/A,,Overcast,310,2013-01-23 02:34:00
9:55 PM,8.8,0.3,69,30.19,7.0,WNW,12.7,20.7,N/A,Snow,Light Snow,300,2013-01-23 02:55:00
10:15 PM,8.8,-0.0,67,30.19,10.0,WNW,11.5,-,N/A,,Overcast,290,2013-01-23 03:15:00
10:35 PM,9.3,-0.8,64,30.19,7.0,WNW,15.0,-,N/A,,Overcast,300,2013-01-23 03:35:00
10:55 PM,9.3,-0.0,66,30.19,7.0,WNW,13.8,17.3,N/A,,Overcast,290,2013-01-23 03:55:00
11:15 PM,9.5,-0.4,64,30.19,10.0,West,15.0,21.9,N/A,,Overcast,280,2013-01-23 04:15:00
11:34 PM,9.5,-0.0,65,30.19,10.0,WNW,16.1,-,N/A,,Overcast,290,2013-01-23 04:34:00
11:55 PM,9.9,-0.4,63,30.19,10.0,WNW,15.0,19.6,N/A,,Overcast,300,2013-01-23 04:55:00